Location: Gipe Farm
(40.9466°N, 95.5370°W)
Time: 15:53:32
(UTC-05:00)

Daily predictions for brighter satellites

Satellite Brightness Start Highest point End
(mag) Time Altitude Azimuth Time Altitude Azimuth Time Altitude Azimuth
FENGYUN 3A 3.9 19:57:41 10° SSE 20:02:55 53° ENE 20:08:10 10° N
Cosmos 2278 Rocket 2.3 20:00:45 10° S 20:06:17 58° ESE 20:11:51 10° NNE
SJ-6B 2.6 20:03:44 10° SSE 20:07:27 71° ENE 20:11:11 10° N
Cosmos 1544 4.2 20:04:34 10° SE 20:07:31 23° E 20:10:29 10° NE
ISS -1.7 20:16:05 10° SSE 20:17:19 12° SE 20:18:25 10° ESE
ATLAS 5 CENTAUR R/B 3.1 20:14:17 10° SSE 20:17:26 18° ESE 20:20:45 10° ENE
USA 215 4.3 20:15:02 10° ENE 20:20:04 23° ESE 20:25:03 10° S
Okean 3 Rocket 3.9 20:15:56 10° N 20:20:09 43° ENE 20:24:21 10° SSE
Cosmos 1934 Rocket 3.9 20:15:13 10° S 20:21:21 81° E 20:27:26 10° N
Cosmos 2297 4.3 20:17:11 10° SSE 20:22:18 35° ESE 20:27:27 10° NE
H-2A R/B 3.0 20:19:01 10° SSE 20:22:47 51° ENE 20:26:37 10° N
Tiangong 1 2.2 20:20:22 10° W 20:23:04 33° SSW 20:25:44 10° SE
Cosmos 1867 4.1 20:19:18 10° S 20:24:14 36° ESE 20:29:13 10° NE
Abrixas 2.8 20:22:01 10° NW 20:24:48 49° NNE 20:26:58 15° E
FengYun 1-2 T 4.2 20:19:55 10° SSE 20:25:28 78° ENE 20:31:07 10° N
Spot 2 Rocket 3.6 20:23:16 10° SSE 20:28:17 59° ENE 20:33:19 10° N
Cosmos 1758 3.6 20:28:36 10° SSE 20:32:21 42° E 20:36:09 10° NNE
Cosmos 1812 Rocket 4.3 20:28:10 10° SSW 20:32:31 59° W 20:36:52 10° N
Helios 1B rocket 3.3 20:29:38 10° NE 20:33:12 27° E 20:36:42 10° SSE
Cosmos 1076 Rocket 4.0 20:29:25 10° N 20:33:23 38° ENE 20:37:20 10° SSE
FREGAT/IRIS 4.4 20:30:52 10° SSW 20:33:44 36° W 20:36:36 10° NNW
Meteor 1-24 Rocket 4.1 20:30:56 10° NNW 20:36:24 68° W 20:42:03 10° S
Cosmos 2082 Rocket 2.7 20:31:11 10° N 20:36:35 41° ENE 20:41:10 14° SE
Lacrosse 5 2.4 20:31:39 10° WSW 20:36:40 60° NW 20:41:42 10° NE
USA 186 1.9 20:39:54 26° E 20:40:07 26° ENE 20:42:03 10° NNE
Cosmos 1953 2.5 20:36:21 10° SSE 20:40:17 49° E 20:44:13 10° NNE
Lacrosse 4 Rocket 4.1 20:38:04 10° WSW 20:41:10 21° NW 20:44:18 10° N
GP-B 3.6 20:41:26 10° SSE 20:45:32 38° E 20:49:40 10° NNE
Envisat 3.7 20:42:59 15° SE 20:46:27 33° ENE 20:50:57 10° N
Cosmos 1939 Rocket 4.2 20:45:33 20° E 20:46:56 23° ENE 20:50:15 10° NNE
Helios 1A 3.3 20:43:23 12° SE 20:46:59 44° ENE 20:50:59 10° N
Cosmos 1271 Rocket 3.6 20:45:34 10° SSE 20:49:01 29° E 20:52:32 10° NNE
Cosmos 1766 Rocket 4.0 20:44:56 10° N 20:49:12 42° ENE 20:52:36 15° SE
Resurs 01 Rocket 1.8 20:47:17 10° S 20:51:41 75° WSW 20:56:08 10° NNW
Cosmos 1125 Rocket 3.4 20:49:46 10° S 20:54:56 73° ESE 21:00:09 10° NNE
Cosmos 1048 Rocket 3.9 20:53:32 10° NNW 20:58:38 64° ENE 21:02:27 18° SSE
Cosmos-2242 3.3 20:55:24 10° SSE 20:59:25 43° E 21:03:28 10° NNE
Geosat 3.9 20:55:05 10° NNE 21:00:07 73° ESE 21:05:08 10° SSW
Lacrosse 5 rocket 2.4 20:57:51 10° NNW 21:01:18 28° NE 21:02:25 24° ENE
ERS-1 Rocket 4.0 21:03:22 24° E 21:04:31 27° ENE 21:08:41 10° N
Cosmos 1674 2.7 21:01:21 10° N 21:05:06 58° E 21:06:52 28° SSE
Cosmos 1605 Rocket 4.4 20:58:53 10° SSW 21:05:06 68° W 21:11:28 10° N
Cosmos 2100 Rocket 4.1 21:01:04 10° SSE 21:07:11 55° E 21:13:22 10° NNE
SeaSat 1 3.7 21:03:32 10° S 21:08:08 40° WSW 21:12:46 10° NW
SAR-Lupe-4 3.4 21:05:55 19° SSE 21:08:23 89° E 21:11:59 10° NNW
YAOGAN 6 4.3 21:10:52 20° NE 21:10:52 20° NE 21:12:53 10° NNE
CZ-2D R/B 4.3 21:14:34 10° S 21:18:17 45° W 21:22:03 10° NNW
Meteor 1-29 2.8 21:16:17 10° NNE 21:19:47 80° ESE 21:22:08 19° S
Cosmos 1743 Rocket 3.9 21:16:28 10° N 21:20:42 43° ENE 21:21:02 42° E
Cosmos 1500 Rocket 4.5 21:18:30 10° NNE 21:21:47 30° ENE 21:21:47 30° ENE
GPS 2-05 Rocket1 4.2 21:21:34 10° SW 21:24:11 29° SSW 21:24:11 29° SSW
COSMOS 2487 2.7 21:22:43 10° NNW 21:26:17 66° WSW 21:27:14 44° S
SAR-Lupe-1 4.5 21:25:36 28° S 21:27:16 60° WSW 21:30:50 10° NNW
Cosmos 1802 Rocket 3.9 21:22:25 10° S 21:28:26 63° E 21:34:31 10° NNE
BREEZE-M DEB (TANK) 4.1 21:28:09 10° W 21:31:23 58° NNW 21:41:27 10° ENE
Cosmos 1818 4.3 21:26:41 10° NW 21:31:57 50° WSW 21:35:22 21° S
Cosmos 2251 Rocket 4.0 21:28:46 10° N 21:33:47 41° ENE 21:34:11 40° ENE
Cosmos 1470 3.1 21:35:45 11° SSW 21:39:33 64° W 21:43:31 10° N
Cosmos 1408 Rocket 4.4 21:37:38 10° NNW 21:41:58 50° W 21:44:55 19° SSW
Cosmos 2061 Rocket 4.0 21:35:40 10° S 21:42:03 87° E 21:48:31 10° N
CZ-4B DEB 4.0 21:44:38 38° W 21:44:38 38° W 21:47:28 10° NNW
Cosmos 1833 Rocket 3.0 21:39:08 10° NNW 21:44:42 63° WSW 21:47:24 30° S
Cosmos 1340 Rocket 3.0 21:43:32 10° NNW 21:47:33 67° W 21:47:50 64° SW
Timation 2 Rocket 4.1 21:41:25 10° NNW 21:47:42 70° WSW 21:50:27 34° S
Cosmos 1733 4.0 21:45:50 20° SSW 21:48:15 51° W 21:52:04 10° N
ISS -1.5 21:50:06 10° WSW 21:51:10 19° WSW 21:51:10 19° WSW
Cosmos 1842 Rocket 4.1 21:55:26 48° NNE 21:55:26 48° NNE 21:58:40 10° N
CZ-3B DEB 4.1 21:48:33 10° W 21:55:48 28° NW 21:59:39 11° NNE
Cosmos 1459 Rocket 4.3 21:52:26 10° SSW 21:58:39 64° W 22:04:48 10° N
ATLAS 5 CENTAUR R/B 2.5 21:56:57 10° SW 22:01:33 53° NW 22:06:35 10° NNE
Cosmos 2151 4.2 21:57:22 10° N 21:59:52 33° NNE 21:59:52 33° NNE
USA 215 3.1 21:56:59 10° NE 22:03:34 89° WNW 22:10:06 10° SW
Cosmos 2173 Rocket 4.5 21:58:28 10° SSW 22:04:31 59° W 22:10:43 10° N
Cosmos 1864 Rocket 4.4 22:08:56 69° SE 22:09:34 76° E 22:15:53 10° N
BREEZE-M DEB (TANK) 3.7 22:05:49 10° WSW 22:09:55 86° NNW 22:26:01 10° ENE
Cosmos 494 Rocket 4.1 22:12:53 10° NNW 22:17:23 68° NW 22:17:23 68° NW
Meteor 1-11 4.1 22:13:32 10° N 22:18:56 81° NW 22:18:56 81° NW
Cosmos 2082 Rocket 3.9 22:15:41 10° NW 22:20:26 28° WSW 22:23:04 20° SW
Lacrosse 5 4.3 22:17:04 10° WNW 22:20:35 18° NNW 22:24:05 10° NNE
SPOT 5 3.5 22:24:16 55° N 22:24:16 55° N 22:28:27 10° N
MetOp-A 4.5 22:31:24 62° NW 22:31:24 62° NW 22:35:58 10° NNW
H-2A R/B 3.4 22:33:28 31° NNE 22:33:28 31° NNE 22:36:25 10° N
ARGOS 3.8 22:33:03 49° N 22:33:03 49° N 22:36:57 10° NNW
USA 267 3.6 22:35:30 51° NE 22:35:40 51° NNE 22:41:57 10° NW
Terra 4.2 22:43:38 16° NNE 22:43:38 16° NNE 22:44:41 10° N
Lacrosse 5 rocket 3.9 22:37:01 10° WNW 22:38:08 17° WNW 22:38:08 17° WNW
ERS-1 Rocket 4.2 22:43:21 36° W 22:43:21 36° W 22:47:46 10° NNW
Cosmos 1725 Rocket 4.4 22:43:44 54° WSW 22:44:31 57° W 22:50:38 10° N
Cosmos 2369 Rocket 4.4 23:16:36 17° NNE 23:16:36 17° NNE 23:17:52 10° NNE
